{"data":{"norad_id":65755,"epoch":"2026-05-24T22:48:56.445984Z","epoch_age_seconds":75371,"freshness":"FRESH","line1":"1 65755U 25216X   26144.95065331  .00027891  00000+0  94999-3 0  9992","line2":"2 65755  53.1601 338.3695 0000784  89.0474 271.0616 15.30209148 38225","mean_motion":15.30209148,"eccentricity":7.84e-5,"inclination_deg":53.1601,"raan_deg":338.3695,"arg_perigee_deg":89.0474,"mean_anomaly_deg":271.0616,"bstar":0.00094999,"rev_number":3822,"period_min":94.10478311949,"perigee_km":474.65045461553,"apogee_km":475.72505593715,"semimajor_km":6853.3247552763,"source":"CELESTRAK","updated_at":"2026-05-25T13:38:20.934003Z"}}